Location: Stuttgart
(48.8069°N, 9.1544°E)
Time: 22:31:03
(UTC+02:00)

ISS - Visible Passes

Search period start: 25 September 2020 00:00
Search period end: 05 October 2020 00:00
Orbit: 419 x 420 km, 51.6° (Epoch: 26 September)

Date Brightness Start Highest point End Pass type
(mag) Time Alt. Az. Time Alt. Az. Time Alt. Az.
25 Sep -3.1 20:58:01 10° WNW 21:01:20 50° N 21:02:08 39° NE visible
25 Sep -0.3 22:34:58 10° WNW 22:35:06 11° WNW 22:35:06 11° WNW visible
26 Sep -3.2 20:10:33 10° W 20:13:52 52° N 20:16:31 15° ENE visible
26 Sep -1.8 21:47:35 10° WNW 21:49:28 30° WNW 21:49:28 30° WNW visible
27 Sep -3.5 21:00:10 10° WNW 21:03:30 56° N 21:03:50 52° NE visible
28 Sep -3.2 20:12:43 10° WNW 20:16:01 51° N 20:18:11 19° ENE visible
28 Sep -1.5 21:49:37 10° WNW 21:51:09 25° WNW 21:51:09 25° WNW visible
29 Sep -3.8 21:02:10 10° WNW 21:05:30 82° N 21:05:30 82° N visible
30 Sep -3.6 20:14:44 10° WNW 20:18:06 66° NNE 20:19:53 25° E visible
30 Sep -1.1 21:51:41 10° W 21:52:51 19° W 21:52:51 19° W visible
01 Oct -3.4 19:27:17 10° WNW 19:30:37 56° N 19:33:57 10° E visible
01 Oct -3.2 21:04:09 10° WNW 21:07:15 51° SW 21:07:15 51° SW visible
02 Oct -3.7 20:16:40 10° WNW 20:20:03 75° SSW 20:21:42 28° ESE visible
02 Oct -0.6 21:54:12 10° W 21:54:40 12° WSW 21:54:40 12° WSW visible
03 Oct -3.7 19:29:12 10° WNW 19:32:36 83° NNE 19:35:59 10° ESE visible
03 Oct -1.9 21:06:20 10° W 21:09:08 24° SW 21:09:10 24° SW visible
04 Oct -2.5 20:18:40 10° W 20:21:48 36° SSW 20:23:45 19° SSE visible
